Location: Buckland
(65.9785°N, 161.1281°W)
Time: 05:59:02
(UTC+00:00)

Altair - Visible Passes

Search period start: 27 November 2020 00:00
Search period end: 07 December 2020 00:00
Orbit: 1502 x 1682 km, 47.2° (Epoch: 26 November)

Date Brightness Start Highest point End Pass type
(mag) Time Alt. Az. Time Alt. Az. Time Alt. Az.
03 Dec 9.2 06:55:36 10° SSW 06:56:40 12° S 06:56:40 12° S visible
04 Dec 9.1 06:30:46 10° SSW 06:33:04 15° S 06:33:04 15° S visible
05 Dec 8.9 06:05:58 10° S 06:09:26 17° S 06:09:26 17° S visible
05 Dec 9.4 08:06:48 10° SW 08:07:28 12° SW 08:07:28 12° SW visible
06 Dec 8.9 05:41:09 10° S 05:45:46 17° SSE 05:45:46 17° SSE visible
06 Dec 9.1 07:41:48 10° SW 07:43:47 15° SSW 07:43:47 15° SSW visible
